ASIASAT 7

Last updated on Sat Apr 13 2024 01:02:38 GMT+0100 (British Summer Time)

1 37933U 11069A 24103.63678024 -.00000343 00000+0 00000+0 0 9997 2 37933 0.0093 209.3022 0001412 121.3993 205.3549 1.00273390 36881
UTC large
Height (km)
Speed (km/s)
/
Latitude / Longitude
Inclination (degrees)
Orbital Period (minutes)
Azimuth
Elevation
Range (km)
Doppler Factor

Next 0 passes for location: London (51.5072 / 0.1276)

Sorry there are no passes over London.